Location: Krasnoyarskiy Pitomnik
(51.1333°N, 71.6167°E)
Time: 08:15:39
(UTC+00:00)

NOSS 3-2 (A) - Pass Details

Date: 22 October 2021
Orbit: 771 x 1437 km, 63.4° (Epoch: 21 November)

Event Time Altitude Azimuth Distance (km) Brightness Sun altitude
Rises 16:01:41 0° 314° (NW) 3,838 7.6 -36.5°
Reaches altitude 10° 16:04:11 10° 316° (NW) 2,972 6.7 -36.8°
Enters shadow 16:09:44 56° 341° (NNW) 1,422 4.4 -37.5°
